TimeMST,TemperatureF,Dew PointF,Humidity,Sea Level PressureIn,VisibilityMPH,Wind Direction,Wind SpeedMPH,Gust SpeedMPH,PrecipitationIn,Events,Conditions,WindDirDegrees,DateUTC
12:56 AM,43.0,24.1,47,30.17,10.0,NE,6.9,-,N/A,,Clear,50,2013-01-24 07:56:00
1:56 AM,37.0,19.9,50,30.19,10.0,Calm,Calm,-,N/A,,Clear,0,2013-01-24 08:56:00
2:56 AM,41.0,23.0,49,30.18,10.0,SW,3.5,-,N/A,,Clear,220,2013-01-24 09:56:00
3:56 AM,37.9,21.0,51,30.18,10.0,Calm,Calm,-,N/A,,Clear,0,2013-01-24 10:56:00
4:56 AM,43.0,25.0,49,30.17,10.0,Calm,Calm,-,N/A,,Clear,0,2013-01-24 11:56:00
5:56 AM,44.1,26.1,49,30.18,10.0,East,4.6,-,N/A,,Clear,100,2013-01-24 12:56:00
6:56 AM,44.1,27.0,51,30.21,10.0,Calm,Calm,-,N/A,,Clear,0,2013-01-24 13:56:00
7:56 AM,42.8,24.8,49,30.30,10.0,NW,3.5,-,N/A,,Clear,320,2013-01-24 14:56:00
8:56 AM,48.0,26.1,42,30.23,10.0,Calm,Calm,-,N/A,,Clear,0,2013-01-24 15:56:00
9:56 AM,52.0,28.0,40,30.24,10.0,Calm,Calm,-,N/A,,Clear,0,2013-01-24 16:56:00
10:56 AM,57.0,28.9,34,30.24,10.0,SSW,3.5,-,N/A,,Mostly Cloudy,200,2013-01-24 17:56:00
11:56 AM,63.0,30.0,29,30.20,10.0,Variable,3.5,-,N/A,,Partly Cloudy,0,2013-01-24 18:56:00
12:56 PM,66.9,30.9,26,30.16,10.0,SSE,5.8,-,N/A,,Overcast,160,2013-01-24 19:56:00
1:56 PM,68.0,32.0,26,30.14,10.0,Calm,Calm,-,N/A,,Overcast,0,2013-01-24 20:56:00
2:56 PM,69.1,30.9,24,30.12,10.0,Calm,Calm,-,N/A,,Overcast,0,2013-01-24 21:56:00
3:56 PM,69.1,32.0,25,30.12,10.0,Calm,Calm,-,N/A,,Overcast,0,2013-01-24 22:56:00
4:56 PM,68.0,32.0,26,30.12,10.0,SE,4.6,-,N/A,,Overcast,130,2013-01-24 23:56:00
5:56 PM,64.0,34.0,33,30.15,10.0,North,9.2,-,N/A,,Scattered Clouds,360,2013-01-25 00:56:00
6:56 PM,60.1,36.0,41,30.17,10.0,NNW,8.1,-,N/A,,Mostly Cloudy,340,2013-01-25 01:56:00
7:56 PM,57.9,36.0,44,30.17,10.0,North,6.9,-,N/A,,Partly Cloudy,10,2013-01-25 02:56:00
8:56 PM,57.0,37.9,49,30.18,10.0,North,9.2,-,N/A,,Clear,360,2013-01-25 03:56:00
9:56 PM,55.0,37.9,53,30.18,10.0,NW,9.2,-,N/A,,Scattered Clouds,320,2013-01-25 04:56:00
10:56 PM,55.0,37.9,53,30.17,10.0,North,9.2,-,N/A,,Partly Cloudy,350,2013-01-25 05:56:00
11:56 PM,55.0,37.9,53,30.16,10.0,North,8.1,-,N/A,,Clear,10,2013-01-25 06:56:00